This is the latest recevied weather packets stored in our database for station/object PP5EO-15. If no packets are shown the sender has not sent any weather packets the latest 10 day(s).
| Time | Temp. | Humidity | Pressure | Rain* | Wind** | Luminosity | Snow |
|---|---|---|---|---|---|---|---|
| 1777566851 | 40° C | 25% | 1015.6 hPa | - | - | - | - |
| 1777565812 | 40.56° C | 23% | 1015.6 hPa | - | - | - | - |
| 1777564528 | 40.56° C | 24% | 1016.1 hPa | - | - | - | - |
| 1777563933 | 40.56° C | 24% | 1016 hPa | - | - | - | - |
| 1777563339 | 40.56° C | 24% | 1016.2 hPa | - | - | - | - |
| 1777562743 | 40.56° C | 24% | 1016.3 hPa | - | - | - | - |
| 1777562148 | 41.11° C | 25% | 1016.3 hPa | - | - | - | - |
| 1777561553 | 40.56° C | 26% | 1016.5 hPa | - | - | - | - |
| 1777560958 | 40° C | 26% | 1016.7 hPa | - | - | - | - |
| 1777560363 | 39.44° C | 28% | 1016.7 hPa | - | - | - | - |
| 1777559769 | 38.89° C | 28% | 1016.9 hPa | - | - | - | - |
| 1777559338 | 38.33° C | 30% | 1017.1 hPa | - | - | - | - |
| 1777559232 | 38.33° C | 30% | 1017.1 hPa | - | - | - | - |
| 1777558578 | 37.78° C | 31% | 1017.1 hPa | - | - | - | - |
| 1777557983 | 36.67° C | 33% | 1017.2 hPa | - | - | - | - |
| 1777557388 | 36.11° C | 34% | 1017.3 hPa | - | - | - | - |
| 1777556793 | 36.11° C | 35% | 1017.4 hPa | - | - | - | - |
| 1777556198 | 35° C | 37% | 1017.4 hPa | - | - | - | - |
| 1777555604 | 34.44° C | 37% | 1017.5 hPa | - | - | - | - |
| 1777555008 | 34.44° C | 38% | 1017.6 hPa | - | - | - | - |
| 1777554413 | 33.89° C | 39% | 1017.6 hPa | - | - | - | - |
| 1777553819 | 33.33° C | 40% | 1017.4 hPa | - | - | - | - |
| 1777553223 | 33.33° C | 41% | 1017.3 hPa | - | - | - | - |
| 1777552628 | 32.78° C | 43% | 1017.2 hPa | - | - | - | - |
| 1777552033 | 32.22° C | 44% | 1017.1 hPa | - | - | - | - |
* Rain since midnight (hover to see other rain measurements)
** Current wind speed in m/s (hover to see current wind gust speed)